Content
SEND FEEDBACK

Daily
Averages
Monthly
Summary
Italy

VENICE - AIRPORT, ITALY


Home > Europe > Italy
Elevation: 20 feet     Latitude: 45 30N     Longitude: 012 19E

WEATHER
 
SELECT A DAY
Number of Records: 303,292;   Date Range: 7/1/96 - 8/31/14
 
SHARE

PRINT THIS DATA

[ ← Previous Day ]
WEATHER ALMANAC - JANUARY 31, 2013
[ Next Day → ]
[ °C ]   °F
Weather ElementAverageHighLow
Temperature40.4 °F44.6 °F (11:20 am)37.4 °F (8:20 am)
Dewpoint35.9 °F39.2 °F (11:20 am)33.8 °F (8:20 am)
Humidity84 %93 % (10:50 pm)76 % (12:20 pm)
Barometer30.11 in30.21 in (11:20 am)30.04 in (12:50 am)
Wind Speed2 mph5.8 mph (12:50 pm)
Weather ElementAverage
Visibility1.9 mi
Wind DirectionNNE (28.3 °)

Weather ElementTotal
Precipitation---
Heating Degree Days24 (Base 65)
Averaged from 47 records on January 31, 2013
WEATHER CONDITIONS BREAKOUT
WIND DIRECTION BREAKOUT
WEATHER BY HOUR - JANUARY 31, 2013
[ °C ]   °F
Local TimeTemperatureDewpointHumidityBarometerVisibilityWind DirectionWind SpeedGust SpeedPrecipitationEventsConditions
12:50 AM39.2 °F35.6 °F87 %30.04 in1.6 miVariable1.2 mphMostly Cloudy
1:20 AM39.2 °F35.6 °F87 %30.04 in1.6 miVariable2.3 mphMostly Cloudy
1:50 AM39.2 °F35.6 °F87 %30.04 in1.6 miVariable1.2 mphMostly Cloudy
2:20 AM39.2 °F35.6 °F87 %30.06 in1.6 miVariable1.2 mphMostly Cloudy
2:50 AM39.2 °F35.6 °F87 %30.06 in1.6 miCalmMostly Cloudy
3:20 AM39.2 °F35.6 °F87 %30.06 in1.6 miVariable1.2 mphMostly Cloudy
3:50 AM39.2 °F35.6 °F87 %30.09 in1.6 miCalmMostly Cloudy
4:20 AM39.2 °F35.6 °F87 %30.09 in1.6 miCalmMostly Cloudy
4:50 AM39.2 °F35.6 °F87 %30.09 in1.6 miVariable1.2 mphMostly Cloudy
5:20 AM39.2 °F35.6 °F87 %30.09 in1.6 miSW (230°)4.6 mphMostly Cloudy
5:50 AM39.2 °F35.6 °F87 %30.12 in1.6 miVariable3.5 mphMostly Cloudy
6:20 AM39.2 °F35.6 °F87 %30.12 in1.9 miWest (280°)4.6 mphMostly Cloudy
6:50 AM39.2 °F35.6 °F87 %30.12 in1.9 miWest (280°)4.6 mphMostly Cloudy
7:20 AM39.2 °F35.6 °F87 %30.15 in1.2 miVariable2.3 mphMostly Cloudy
7:50 AM39.2 °F35.6 °F87 %30.15 in1.6 miVariable2.3 mphMostly Cloudy
8:20 AM37.4 °F33.8 °F87 %30.15 in1.4 miVariable2.3 mphMostly Cloudy
8:50 AM37.4 °F33.8 °F87 %30.18 in1.2 miCalmScattered Clouds
9:20 AM37.4 °F33.8 °F87 %30.18 in1.6 miCalmScattered Clouds
9:50 AM41.0 °F37.4 °F87 %30.18 in1.9 miVariable2.3 mphScattered Clouds
10:20 AM41.0 °F35.6 °F81 %30.18 in1.6 miVariable1.2 mphScattered Clouds
10:50 AM41.0 °F35.6 °F81 %30.18 in1.6 miVariable2.3 mphScattered Clouds
11:20 AM44.6 °F39.2 °F81 %30.21 in1.9 miCalmScattered Clouds
11:50 AM44.6 °F39.2 °F81 %30.21 in1.9 miSSW (200°)4.6 mphScattered Clouds
12:20 PM44.6 °F37.4 °F76 %30.18 in1.9 miVariable1.2 mphMostly Cloudy
12:50 PM42.8 °F37.4 °F81 %30.18 in1.9 miSouth (170°)5.8 mphMostly Cloudy
1:20 PM41.0 °F37.4 °F87 %30.18 in1.6 miVariable3.5 mphMostly Cloudy
1:50 PM41.0 °F37.4 °F87 %30.18 in1.6 miSouth (170°)4.6 mphMostly Cloudy
2:20 PM41.0 °F37.4 °F87 %30.18 in1.6 miVariable2.3 mphMostly Cloudy
2:50 PM44.6 °F37.4 °F76 %30.12 in1.9 miVariable3.5 mphPartly Cloudy
3:20 PM42.8 °F37.4 °F81 %30.15 in2.2 miCalmPartly Cloudy
3:50 PM42.8 °F37.4 °F81 %30.12 in2.2 miVariable1.2 mphPartly Cloudy
4:20 PM42.8 °F37.4 °F81 %30.12 in2.8 miVariable2.3 mphMist
4:50 PM42.8 °F35.6 °F76 %30.09 in3.1 miVariable2.3 mphPartly Cloudy
5:20 PM42.8 °F37.4 °F81 %30.09 in2.5 miVariable3.5 mphScattered Clouds
5:50 PM42.8 °F35.6 °F76 %30.09 in2.5 miVariable2.3 mphScattered Clouds
6:20 PM42.8 °F35.6 °F76 %30.09 in3.7 miVariable2.3 mphScattered Clouds
6:50 PM41.0 °F35.6 °F81 %30.09 in3.7 miVariable1.2 mphScattered Clouds
7:20 PM41.0 °F35.6 °F81 %30.09 in3.7 miVariable2.3 mphScattered Clouds
7:50 PM41.0 °F35.6 °F81 %30.06 in3.1 miVariable1.2 mphMostly Cloudy
8:20 PM39.2 °F35.6 °F87 %30.06 in2.5 miCalmMostly Cloudy
8:50 PM41.0 °F35.6 °F81 %30.06 in2.2 miVariable1.2 mphMostly Cloudy
9:20 PM39.2 °F33.8 °F81 %30.06 in2.2 miVariable1.2 mphPartly Cloudy
9:50 PM39.2 °F33.8 °F81 %30.06 in2.2 miCalmPartly Cloudy
10:20 PM37.4 °F33.8 °F87 %30.04 in1.2 miVariable2.3 mphPartly Cloudy
10:50 PM37.4 °F35.6 °F93 %30.04 in1.1 miVariable2.3 mphScattered Clouds
11:20 PM37.4 °F33.8 °F87 %30.04 in1.2 miVariable2.3 mphScattered Clouds
11:50 PM37.4 °F33.8 °F87 %30.04 in1.2 miCalmPartly Cloudy
Hourly data recorded from LIPZ, located miles away from Venice - Airport, Italy







STORIES FROM OUR PARTNERS